Year,Month,Day,Hour,Minute,Value (Times are PST for temperature in C)
2008,06,21,00,00,10.40
2008,06,21,00,01,10.40
2008,06,21,00,02,10.40
2008,06,21,00,03,10.40
2008,06,21,00,04,10.40
2008,06,21,00,05,10.40
2008,06,21,00,06,10.40
2008,06,21,00,07,10.40
2008,06,21,00,08,10.40
2008,06,21,00,09,10.40
2008,06,21,00,10,10.40
2008,06,21,00,11,10.40
2008,06,21,00,12,10.40
2008,06,21,01,02,10.90
2008,06,21,01,03,10.80
2008,06,21,01,04,10.80
2008,06,21,01,05,10.80
2008,06,21,01,06,10.90
2008,06,21,01,07,10.90
2008,06,21,01,08,10.90
2008,06,21,01,09,11.00
2008,06,21,01,10,11.00
2008,06,21,01,11,11.10
2008,06,21,01,12,11.10
2008,06,21,01,13,11.10
2008,06,21,01,14,11.10
2008,06,21,01,15,11.10
2008,06,21,01,16,11.10
2008,06,21,01,17,11.00
2008,06,21,01,18,11.00
2008,06,21,01,19,11.10
2008,06,21,01,20,11.10
2008,06,21,01,21,11.00
2008,06,21,01,22,11.00
2008,06,21,01,23,11.00
2008,06,21,01,24,11.00
2008,06,21,01,25,10.90
2008,06,21,01,26,10.90
2008,06,21,01,27,10.90
2008,06,21,01,28,10.90
2008,06,21,01,29,10.90
2008,06,21,01,30,11.00
2008,06,21,01,31,11.00
2008,06,21,01,32,11.00
2008,06,21,01,33,11.00
2008,06,21,01,34,10.90
2008,06,21,01,35,10.90
2008,06,21,01,36,10.90
2008,06,21,01,37,10.90
2008,06,21,01,38,10.90
2008,06,21,01,39,10.90
2008,06,21,01,40,10.90
2008,06,21,01,41,10.90
2008,06,21,01,42,10.90
2008,06,21,01,43,10.90
2008,06,21,01,44,10.90
2008,06,21,01,45,11.00
2008,06,21,01,46,11.10
2008,06,21,01,47,11.10
2008,06,21,01,48,11.20
2008,06,21,01,49,11.20
2008,06,21,01,50,11.20
2008,06,21,01,51,11.20
2008,06,21,01,52,11.20
2008,06,21,01,53,11.20
2008,06,21,01,54,11.20
2008,06,21,01,55,11.20
2008,06,21,01,56,11.20
2008,06,21,01,57,11.10
2008,06,21,01,58,11.10
2008,06,21,01,59,11.20
2008,06,21,02,00,11.20
2008,06,21,02,01,11.20
2008,06,21,02,02,11.20
2008,06,21,02,03,11.30
2008,06,21,02,04,11.30
2008,06,21,02,05,11.30
2008,06,21,02,06,11.30
2008,06,21,02,07,11.40
2008,06,21,02,08,11.40
2008,06,21,02,09,11.40
2008,06,21,02,10,11.40
2008,06,21,02,11,11.40
2008,06,21,02,12,11.30
2008,06,21,02,13,11.30
2008,06,21,02,14,11.30
2008,06,21,02,15,11.30
2008,06,21,02,16,11.30
2008,06,21,02,17,11.30
2008,06,21,02,18,11.40
2008,06,21,02,19,11.40
2008,06,21,02,20,11.50
2008,06,21,02,21,11.50
2008,06,21,02,22,11.60
2008,06,21,02,23,11.60
2008,06,21,02,24,11.50
2008,06,21,02,25,11.50
2008,06,21,02,26,11.50
2008,06,21,02,27,11.40
2008,06,21,02,28,11.40
2008,06,21,02,29,11.40
2008,06,21,02,30,11.30
2008,06,21,02,31,11.30
2008,06,21,02,32,11.30
2008,06,21,02,33,11.30
2008,06,21,02,34,11.30
2008,06,21,02,35,11.30
2008,06,21,02,36,11.20
2008,06,21,02,37,11.20
2008,06,21,02,38,11.20
2008,06,21,02,39,11.20
2008,06,21,02,40,11.20
2008,06,21,02,41,11.20
2008,06,21,02,42,11.30
2008,06,21,02,43,11.30
2008,06,21,02,44,11.30
2008,06,21,02,45,11.30
2008,06,21,02,46,11.30
2008,06,21,02,47,11.30
2008,06,21,02,48,11.40
2008,06,21,02,49,11.40
2008,06,21,02,50,11.40
2008,06,21,02,51,11.40
2008,06,21,02,52,11.40
2008,06,21,02,53,11.40
2008,06,21,02,54,11.40
2008,06,21,02,55,11.40
2008,06,21,02,56,11.40
2008,06,21,02,57,11.40
2008,06,21,02,58,11.40
2008,06,21,02,59,11.30
2008,06,21,03,00,11.30
2008,06,21,03,01,11.30
2008,06,21,03,02,11.30
2008,06,21,03,03,11.30
2008,06,21,03,04,11.30
2008,06,21,03,05,11.30
2008,06,21,03,06,11.30
2008,06,21,03,07,11.30
2008,06,21,03,08,11.30
2008,06,21,03,09,11.30
2008,06,21,03,10,11.30
2008,06,21,03,11,11.30
2008,06,21,03,12,11.30
2008,06,21,03,13,11.30
2008,06,21,03,14,11.30
2008,06,21,03,15,11.30
2008,06,21,03,16,11.30
2008,06,21,03,17,11.30
2008,06,21,03,18,11.30
2008,06,21,03,19,11.30
2008,06,21,03,20,11.30
2008,06,21,03,21,11.30
2008,06,21,03,22,11.30
2008,06,21,03,23,11.30
2008,06,21,03,24,11.30
2008,06,21,03,25,11.30
2008,06,21,03,26,11.30
2008,06,21,03,27,11.30
2008,06,21,03,28,11.30
2008,06,21,03,29,11.30
2008,06,21,03,30,11.30
2008,06,21,03,31,11.30
2008,06,21,03,32,11.30
2008,06,21,03,33,11.30
2008,06,21,03,34,11.30
2008,06,21,03,35,11.30
2008,06,21,03,36,11.30
2008,06,21,03,37,11.30
2008,06,21,03,38,11.20
2008,06,21,03,39,11.20
2008,06,21,03,40,11.20
2008,06,21,03,41,11.30
2008,06,21,03,42,11.30
2008,06,21,03,43,11.30
2008,06,21,03,44,11.30
2008,06,21,03,45,11.30
2008,06,21,03,46,11.20
2008,06,21,03,47,11.20
2008,06,21,03,48,11.20
2008,06,21,03,49,11.20
2008,06,21,03,50,11.10
2008,06,21,03,51,11.10
2008,06,21,03,52,11.10
2008,06,21,03,53,11.10
2008,06,21,03,54,11.10
2008,06,21,03,55,11.10
2008,06,21,03,56,11.10
2008,06,21,03,57,11.20
2008,06,21,03,58,11.20
2008,06,21,03,59,11.20
2008,06,21,04,00,11.10
2008,06,21,04,01,11.10
2008,06,21,04,02,11.10
2008,06,21,04,03,11.10
2008,06,21,04,04,11.10
2008,06,21,04,05,11.00
2008,06,21,04,06,11.00
2008,06,21,04,07,11.00
2008,06,21,04,08,11.00
2008,06,21,04,09,10.90
2008,06,21,04,10,10.90
2008,06,21,04,11,10.90
2008,06,21,04,12,10.90
2008,06,21,04,13,11.00
2008,06,21,04,14,11.00
2008,06,21,04,15,11.10
2008,06,21,04,16,11.10
2008,06,21,04,17,11.10
2008,06,21,04,18,11.20
2008,06,21,04,19,11.10
2008,06,21,04,20,11.10
2008,06,21,04,21,11.10
2008,06,21,04,22,11.10
2008,06,21,04,23,11.00
2008,06,21,04,24,11.00
2008,06,21,04,25,10.90
2008,06,21,04,26,10.90
2008,06,21,04,27,10.90
2008,06,21,04,28,10.90
2008,06,21,04,29,10.90
2008,06,21,04,30,10.90
2008,06,21,04,31,10.90
2008,06,21,04,32,10.90
2008,06,21,04,33,10.90
2008,06,21,04,34,10.90
2008,06,21,04,35,11.00
2008,06,21,04,36,11.00
2008,06,21,04,37,11.00
2008,06,21,04,38,11.00
2008,06,21,04,39,11.00
2008,06,21,04,40,10.90
2008,06,21,04,41,10.90
2008,06,21,04,42,10.90
2008,06,21,04,43,10.90
2008,06,21,04,44,10.80
2008,06,21,04,45,10.80
2008,06,21,04,46,10.80
2008,06,21,04,47,10.80
2008,06,21,04,48,10.70
2008,06,21,04,49,10.70
2008,06,21,04,50,10.60
2008,06,21,04,51,10.60
2008,06,21,04,52,10.50
2008,06,21,04,53,10.50
2008,06,21,04,54,10.40
2008,06,21,04,55,10.40
2008,06,21,04,56,10.30
2008,06,21,04,57,10.30
2008,06,21,04,58,10.20
2008,06,21,04,59,10.20
2008,06,21,05,00,10.20
2008,06,21,05,01,10.20
2008,06,21,05,02,10.20
2008,06,21,05,03,10.10
2008,06,21,05,04,10.10
2008,06,21,05,05,10.10
2008,06,21,05,06,10.10
2008,06,21,05,07,10.10
2008,06,21,05,08,10.10
2008,06,21,05,09,10.00
2008,06,21,05,10,10.00
2008,06,21,05,11,10.00
2008,06,21,05,12,10.00
2008,06,21,05,13,10.00
2008,06,21,05,14,10.00
2008,06,21,05,15,10.00
2008,06,21,05,16,10.00
2008,06,21,05,17,10.00
2008,06,21,05,18,10.00
2008,06,21,05,19,10.00
2008,06,21,05,20,10.00
2008,06,21,05,21,10.00
2008,06,21,05,22,10.00
2008,06,21,05,23,10.00
2008,06,21,05,24,10.00
2008,06,21,05,25,10.00
2008,06,21,05,26,10.00
2008,06,21,05,27,10.00
2008,06,21,05,28,9.90
2008,06,21,05,29,9.90
2008,06,21,05,30,9.90
2008,06,21,05,31,9.90
2008,06,21,05,32,9.90
2008,06,21,05,33,9.90
2008,06,21,05,34,9.90
2008,06,21,05,35,10.00
2008,06,21,05,36,10.00
2008,06,21,05,37,9.90
2008,06,21,05,38,9.90
2008,06,21,05,39,9.90
2008,06,21,05,40,9.90
2008,06,21,05,41,9.90
2008,06,21,05,42,9.90
2008,06,21,05,43,9.90
2008,06,21,05,44,9.90
2008,06,21,05,45,9.90
2008,06,21,05,46,9.90
2008,06,21,05,47,9.90
2008,06,21,05,48,9.90
2008,06,21,05,49,9.90
2008,06,21,05,50,9.90
2008,06,21,05,51,9.90
2008,06,21,05,52,9.90
2008,06,21,05,53,9.90
2008,06,21,05,54,9.90
2008,06,21,05,55,9.90
2008,06,21,05,56,9.90
2008,06,21,05,57,9.90
2008,06,21,05,58,10.00
2008,06,21,05,59,10.00
2008,06,21,06,00,10.10
2008,06,21,06,01,10.10
2008,06,21,06,02,10.20
2008,06,21,06,03,10.20
2008,06,21,06,04,10.20
2008,06,21,06,05,10.20
2008,06,21,06,06,10.30
2008,06,21,06,07,10.30
2008,06,21,06,08,10.30
2008,06,21,06,09,10.30
2008,06,21,06,10,10.40
2008,06,21,06,11,10.40
2008,06,21,06,12,10.50
2008,06,21,06,13,10.50
2008,06,21,06,14,10.50
2008,06,21,06,15,10.40
2008,06,21,06,16,10.40
2008,06,21,06,17,10.40
2008,06,21,06,18,10.40
2008,06,21,06,19,10.50
2008,06,21,06,20,10.50
2008,06,21,06,21,10.50
2008,06,21,06,22,10.50
2008,06,21,06,23,10.60
2008,06,21,06,24,10.70
2008,06,21,06,25,10.70
2008,06,21,06,26,10.70
2008,06,21,06,27,10.70
2008,06,21,06,28,10.70
2008,06,21,06,29,10.70
2008,06,21,06,30,10.70
2008,06,21,06,31,10.80
2008,06,21,06,32,10.80
2008,06,21,06,33,10.80
2008,06,21,06,34,10.80
2008,06,21,06,35,10.80
2008,06,21,06,36,10.80
2008,06,21,06,37,10.80
2008,06,21,06,38,10.80
2008,06,21,06,39,10.80
2008,06,21,06,40,10.80
2008,06,21,06,41,10.80
2008,06,21,06,42,10.80
2008,06,21,06,43,10.90
2008,06,21,06,44,10.90
2008,06,21,06,45,10.90
2008,06,21,06,46,10.90
2008,06,21,06,47,10.90
2008,06,21,06,48,10.90
2008,06,21,06,49,10.90
2008,06,21,06,50,10.90
2008,06,21,06,51,10.90
2008,06,21,06,52,10.90
2008,06,21,06,53,10.90
2008,06,21,06,54,10.90
2008,06,21,06,55,11.00
2008,06,21,06,56,11.00
2008,06,21,06,57,11.00
2008,06,21,06,58,11.00
2008,06,21,06,59,11.00
2008,06,21,07,00,11.00
2008,06,21,07,01,11.00
2008,06,21,07,02,11.00
2008,06,21,07,03,11.00
2008,06,21,07,04,11.00
2008,06,21,07,05,11.00
2008,06,21,07,06,11.00
2008,06,21,07,07,11.00
2008,06,21,07,08,11.00
2008,06,21,07,09,11.10
2008,06,21,07,10,11.10
2008,06,21,07,11,11.10
2008,06,21,07,12,11.10
2008,06,21,07,13,11.10
2008,06,21,07,14,11.10
2008,06,21,07,15,11.10
2008,06,21,07,16,11.10
2008,06,21,07,17,11.20
2008,06,21,07,18,11.20
2008,06,21,07,19,11.20
2008,06,21,07,20,11.20
2008,06,21,07,21,11.20
2008,06,21,07,22,11.20
2008,06,21,07,23,11.30
2008,06,21,07,24,11.30
2008,06,21,07,25,11.30
2008,06,21,07,26,11.30
2008,06,21,07,27,11.30
2008,06,21,07,28,11.40
2008,06,21,07,29,11.40
2008,06,21,07,30,11.40
2008,06,21,07,31,11.40
2008,06,21,07,32,11.40
2008,06,21,07,33,11.50
2008,06,21,07,34,11.50
2008,06,21,07,35,11.50
2008,06,21,07,36,11.50
2008,06,21,07,37,11.60
2008,06,21,07,38,11.60
2008,06,21,07,39,11.60
2008,06,21,07,40,11.60
2008,06,21,07,41,11.60
2008,06,21,07,42,11.60
2008,06,21,07,43,11.70
2008,06,21,07,44,11.70
2008,06,21,07,45,11.70
2008,06,21,07,46,11.70
2008,06,21,07,47,11.70
2008,06,21,07,48,11.80
2008,06,21,07,49,11.80
2008,06,21,07,50,11.80
2008,06,21,07,51,11.80
2008,06,21,07,52,11.80
2008,06,21,07,53,11.90
2008,06,21,07,54,11.90
2008,06,21,07,55,11.90
2008,06,21,07,56,12.00
2008,06,21,07,57,12.00
2008,06,21,07,58,12.00
2008,06,21,07,59,12.00
2008,06,21,08,00,12.10
2008,06,21,08,01,12.10
2008,06,21,08,02,12.10
2008,06,21,08,03,12.20
2008,06,21,08,04,12.20
2008,06,21,08,05,12.20
2008,06,21,08,06,12.20
2008,06,21,08,07,12.20
2008,06,21,08,08,12.30
2008,06,21,08,09,12.30
2008,06,21,08,10,12.30
2008,06,21,08,11,12.30
2008,06,21,08,12,12.40
2008,06,21,08,13,12.40
2008,06,21,08,14,12.50
2008,06,21,08,15,12.50
2008,06,21,08,16,12.50
2008,06,21,08,17,12.60
2008,06,21,08,18,12.60
2008,06,21,08,19,12.60
2008,06,21,08,20,12.60
2008,06,21,08,21,12.70
2008,06,21,08,22,12.70
2008,06,21,08,23,12.70
2008,06,21,08,24,12.70
2008,06,21,08,25,12.80
2008,06,21,08,26,12.80
2008,06,21,08,27,12.80
2008,06,21,08,28,12.90
2008,06,21,08,29,12.90
2008,06,21,08,30,12.90
2008,06,21,08,31,13.00
2008,06,21,08,32,13.00
2008,06,21,08,33,13.00
2008,06,21,08,34,13.10
2008,06,21,08,35,13.10
2008,06,21,08,36,13.10
2008,06,21,08,37,13.10
2008,06,21,08,38,13.10
2008,06,21,08,39,13.20
2008,06,21,08,40,13.20
2008,06,21,08,41,13.20
2008,06,21,08,42,13.20
2008,06,21,08,43,13.30
2008,06,21,08,44,13.30
2008,06,21,08,45,13.30
2008,06,21,08,46,13.40
2008,06,21,08,47,13.40
2008,06,21,08,48,13.50
2008,06,21,08,49,13.50
2008,06,21,08,50,13.60
2008,06,21,08,51,13.70
2008,06,21,08,52,13.70
2008,06,21,08,53,13.70
2008,06,21,08,54,13.80
2008,06,21,08,55,13.80
2008,06,21,08,56,13.90
2008,06,21,08,57,13.90
2008,06,21,08,58,14.00
2008,06,21,08,59,14.10
2008,06,21,09,00,14.10
2008,06,21,09,01,14.20
2008,06,21,09,02,14.20
2008,06,21,09,03,14.20
2008,06,21,09,04,14.30
2008,06,21,09,05,14.30
2008,06,21,09,06,14.40
2008,06,21,09,07,14.50
2008,06,21,09,08,14.60
2008,06,21,09,09,14.70
2008,06,21,09,10,14.80
2008,06,21,09,11,14.80
2008,06,21,09,12,14.90
2008,06,21,09,13,14.90
2008,06,21,09,14,15.00
2008,06,21,09,15,15.00
2008,06,21,09,16,15.00
2008,06,21,09,17,15.00
2008,06,21,09,18,15.00
2008,06,21,09,19,15.00
2008,06,21,09,20,15.10
2008,06,21,09,21,15.30
2008,06,21,09,22,15.30
2008,06,21,09,23,15.40
2008,06,21,09,24,15.50
2008,06,21,09,25,15.60
2008,06,21,09,26,15.70
2008,06,21,09,27,15.70
2008,06,21,09,28,15.80
2008,06,21,09,29,15.90
2008,06,21,09,30,15.90
2008,06,21,09,31,15.90
2008,06,21,09,32,16.00
2008,06,21,09,33,16.00
2008,06,21,09,34,16.10
2008,06,21,09,35,16.10
2008,06,21,09,36,16.10
2008,06,21,09,37,16.10
2008,06,21,09,38,16.20
2008,06,21,09,39,16.20
2008,06,21,09,40,16.30
2008,06,21,09,41,16.30
2008,06,21,09,42,16.30
2008,06,21,09,43,16.40
2008,06,21,09,44,16.40
2008,06,21,09,45,16.50
2008,06,21,09,46,16.50
2008,06,21,09,47,16.50
2008,06,21,09,48,16.60
2008,06,21,09,49,16.60
2008,06,21,09,50,16.70
2008,06,21,09,51,16.80
2008,06,21,09,52,16.90
2008,06,21,09,53,16.90
2008,06,21,09,54,17.00
2008,06,21,09,55,17.10
2008,06,21,09,56,17.20
2008,06,21,09,57,17.30
2008,06,21,09,58,17.30
2008,06,21,09,59,17.30
2008,06,21,10,00,17.30
2008,06,21,10,01,17.30
2008,06,21,10,02,17.30
2008,06,21,10,03,17.40
2008,06,21,10,04,17.40
2008,06,21,10,05,17.40
2008,06,21,10,06,17.40
2008,06,21,10,07,17.40
2008,06,21,10,08,17.40
2008,06,21,10,09,17.40
2008,06,21,10,10,17.50
2008,06,21,10,11,17.50
2008,06,21,10,12,17.60
2008,06,21,10,13,17.60
2008,06,21,10,14,17.70
2008,06,21,10,15,17.70
2008,06,21,10,16,17.80
2008,06,21,10,17,17.80
2008,06,21,10,18,17.80
2008,06,21,10,19,17.80
2008,06,21,10,20,17.80
2008,06,21,10,21,17.80
2008,06,21,10,22,17.80
2008,06,21,10,23,17.80
2008,06,21,10,24,17.80
2008,06,21,10,25,17.80
2008,06,21,10,26,17.90
2008,06,21,10,27,17.90
2008,06,21,10,28,18.00
2008,06,21,10,29,18.00
2008,06,21,10,30,18.10
2008,06,21,10,31,18.10
2008,06,21,10,32,18.10
2008,06,21,10,33,18.10
2008,06,21,10,34,18.00
2008,06,21,10,35,17.80
2008,06,21,10,36,17.70
2008,06,21,10,37,17.60
2008,06,21,10,38,17.50
2008,06,21,10,39,17.40
2008,06,21,10,40,17.20
2008,06,21,10,41,17.10
2008,06,21,10,42,17.00
2008,06,21,10,43,16.90
2008,06,21,10,44,16.80
2008,06,21,10,45,16.80
2008,06,21,10,46,16.70
2008,06,21,10,47,16.70
2008,06,21,10,48,16.70
2008,06,21,10,49,16.70
2008,06,21,10,50,16.70
2008,06,21,10,51,16.80
2008,06,21,10,52,16.90
2008,06,21,10,53,17.00
2008,06,21,10,54,17.10
2008,06,21,10,55,17.20
2008,06,21,10,56,17.30
2008,06,21,10,57,17.30
2008,06,21,10,58,17.40
2008,06,21,10,59,17.40
2008,06,21,11,00,17.50
2008,06,21,11,01,17.50
2008,06,21,11,02,17.60
2008,06,21,11,03,17.60
2008,06,21,11,04,17.70
2008,06,21,11,05,17.70
2008,06,21,11,06,17.80
2008,06,21,11,07,17.90
2008,06,21,11,08,17.90
2008,06,21,11,09,18.00
2008,06,21,11,10,18.00
2008,06,21,11,11,18.10
2008,06,21,11,12,18.20
2008,06,21,11,13,18.20
2008,06,21,11,14,18.30
2008,06,21,11,15,18.30
2008,06,21,11,16,18.30
2008,06,21,11,17,18.20
2008,06,21,11,18,18.10
2008,06,21,11,19,18.10
2008,06,21,11,20,18.00
2008,06,21,11,21,18.00
2008,06,21,11,22,18.00
2008,06,21,11,23,18.10
2008,06,21,11,24,18.10
2008,06,21,11,25,18.20
2008,06,21,11,26,18.20
2008,06,21,11,27,18.40
2008,06,21,11,28,18.50
2008,06,21,11,29,18.60
2008,06,21,11,30,18.70
2008,06,21,11,31,18.80
2008,06,21,11,32,18.90
2008,06,21,11,33,19.00
2008,06,21,11,34,19.10
2008,06,21,11,35,19.10
2008,06,21,11,36,19.10
2008,06,21,11,37,19.10
2008,06,21,11,38,19.10
2008,06,21,11,39,19.10
2008,06,21,11,40,19.20
2008,06,21,11,41,19.30
2008,06,21,11,42,19.50
2008,06,21,11,43,19.60
2008,06,21,11,44,19.70
2008,06,21,11,45,19.90
2008,06,21,11,46,20.00
2008,06,21,11,47,20.20
2008,06,21,11,48,20.20
2008,06,21,11,49,20.10
2008,06,21,11,50,20.00
2008,06,21,11,51,19.90
2008,06,21,11,52,19.90
2008,06,21,11,53,19.70
2008,06,21,11,54,19.60
2008,06,21,11,55,19.50
2008,06,21,11,56,19.30
2008,06,21,11,57,19.20
2008,06,21,11,58,19.10
2008,06,21,11,59,19.00
2008,06,21,12,00,18.90
2008,06,21,12,01,18.80
2008,06,21,12,02,18.70
2008,06,21,12,03,18.60
2008,06,21,12,04,18.60
2008,06,21,12,05,18.60
2008,06,21,12,06,18.60
2008,06,21,12,07,18.60
2008,06,21,12,08,18.60
2008,06,21,12,09,18.60
2008,06,21,12,10,18.60
2008,06,21,12,11,18.70
2008,06,21,12,12,18.70
2008,06,21,12,13,18.70
2008,06,21,12,14,18.70
2008,06,21,12,15,18.70
2008,06,21,12,16,18.70
2008,06,21,12,17,18.70
2008,06,21,12,18,18.80
2008,06,21,12,19,18.80
2008,06,21,12,20,18.80
2008,06,21,12,21,18.80
2008,06,21,12,22,18.90
2008,06,21,12,23,18.90
2008,06,21,12,24,19.00
2008,06,21,12,25,19.10
2008,06,21,12,26,19.10
2008,06,21,12,27,19.20
2008,06,21,12,28,19.30
2008,06,21,12,29,19.30
2008,06,21,12,30,19.40
2008,06,21,12,31,19.50
2008,06,21,12,32,19.60
2008,06,21,12,33,19.70
2008,06,21,12,34,19.70
2008,06,21,12,35,19.80
2008,06,21,12,36,19.80
2008,06,21,12,37,19.80
2008,06,21,12,38,19.80
2008,06,21,12,39,19.80
2008,06,21,12,40,19.90
2008,06,21,12,41,19.90
2008,06,21,12,42,19.90
2008,06,21,12,43,20.00
2008,06,21,12,44,20.00
2008,06,21,12,45,20.10
2008,06,21,12,46,20.10
2008,06,21,12,47,20.10
2008,06,21,12,48,20.20
2008,06,21,12,49,20.20
2008,06,21,12,50,20.10
2008,06,21,12,51,20.10
2008,06,21,12,52,20.00
2008,06,21,12,53,20.00
2008,06,21,12,54,20.00
2008,06,21,12,55,20.00
2008,06,21,12,56,20.00
2008,06,21,12,57,20.10
2008,06,21,12,58,20.10
2008,06,21,12,59,20.10
2008,06,21,13,00,20.20
2008,06,21,13,01,20.20
2008,06,21,13,02,20.20
2008,06,21,13,03,20.20
2008,06,21,13,04,20.20
2008,06,21,13,05,20.30
2008,06,21,13,06,20.30
2008,06,21,13,07,20.30
2008,06,21,13,08,20.30
2008,06,21,13,09,20.30
2008,06,21,13,10,20.30
2008,06,21,13,11,20.30
2008,06,21,13,12,20.30
2008,06,21,13,13,20.20
2008,06,21,13,14,20.20
2008,06,21,13,15,20.10
2008,06,21,13,16,20.10
2008,06,21,13,17,20.10
2008,06,21,13,18,20.10
2008,06,21,13,19,20.10
2008,06,21,13,20,20.10
2008,06,21,13,21,20.10
2008,06,21,13,22,20.10
2008,06,21,13,23,20.10
2008,06,21,13,24,20.10
2008,06,21,13,25,20.10
2008,06,21,13,26,20.20
2008,06,21,13,27,20.20
2008,06,21,13,28,20.30
2008,06,21,13,29,20.30
2008,06,21,13,30,20.40
2008,06,21,13,31,20.40
2008,06,21,13,32,20.40
2008,06,21,13,33,20.40
2008,06,21,13,34,20.40
2008,06,21,13,35,20.50
2008,06,21,13,36,20.50
2008,06,21,13,37,20.50
2008,06,21,13,38,20.50
2008,06,21,13,39,20.60
2008,06,21,13,40,20.60
2008,06,21,13,41,20.60
2008,06,21,13,42,20.50
2008,06,21,13,43,20.50
2008,06,21,13,44,20.50
2008,06,21,13,45,20.50
2008,06,21,13,46,20.40
2008,06,21,13,47,20.30
2008,06,21,13,48,20.20
2008,06,21,13,49,20.00
2008,06,21,13,50,19.90
2008,06,21,13,51,19.80
2008,06,21,13,52,19.80
2008,06,21,13,53,19.70
2008,06,21,13,54,19.70
2008,06,21,13,55,19.60
2008,06,21,13,56,19.60
2008,06,21,13,57,19.50
2008,06,21,13,58,19.40
2008,06,21,13,59,19.30
2008,06,21,14,00,19.20
2008,06,21,14,01,19.10
2008,06,21,14,02,19.00
2008,06,21,14,03,18.90
2008,06,21,14,04,18.80
2008,06,21,14,05,18.80
2008,06,21,14,06,18.90
2008,06,21,14,07,18.90
2008,06,21,14,08,19.00
2008,06,21,14,09,19.10
2008,06,21,14,10,19.30
2008,06,21,14,11,19.40
2008,06,21,14,12,19.50
2008,06,21,14,13,19.60
2008,06,21,14,14,19.80
2008,06,21,14,15,20.00
2008,06,21,14,16,20.10
2008,06,21,14,17,20.30
2008,06,21,14,18,20.40
2008,06,21,14,19,20.50
2008,06,21,14,20,20.70
2008,06,21,14,21,20.80
2008,06,21,14,22,20.90
2008,06,21,14,23,21.00
2008,06,21,14,24,21.10
2008,06,21,14,25,21.30
2008,06,21,14,26,21.30
2008,06,21,14,27,21.40
2008,06,21,14,28,21.40
2008,06,21,14,29,21.40
2008,06,21,14,30,21.30
2008,06,21,14,31,21.20
2008,06,21,14,32,21.20
2008,06,21,14,33,21.20
2008,06,21,14,34,21.30
2008,06,21,14,35,21.30
2008,06,21,14,36,21.30
2008,06,21,14,37,21.20
2008,06,21,14,38,21.20
2008,06,21,14,39,21.10
2008,06,21,14,40,20.90
2008,06,21,14,41,20.70
2008,06,21,14,42,20.50
2008,06,21,14,43,20.30
2008,06,21,14,44,20.10
2008,06,21,14,45,19.80
2008,06,21,14,46,19.60
2008,06,21,14,47,19.50
2008,06,21,14,48,19.30
2008,06,21,14,49,19.20
2008,06,21,14,50,19.10
2008,06,21,14,51,19.10
2008,06,21,14,52,19.10
2008,06,21,14,53,19.00
2008,06,21,14,54,18.90
2008,06,21,14,55,18.90
2008,06,21,14,56,18.90
2008,06,21,14,57,18.90
2008,06,21,14,58,18.80
2008,06,21,14,59,18.70
2008,06,21,15,00,18.60
2008,06,21,15,01,18.50
2008,06,21,15,02,18.40
2008,06,21,15,03,18.40
2008,06,21,15,04,18.30
2008,06,21,15,05,18.20
2008,06,21,15,06,18.20
2008,06,21,15,07,18.30
2008,06,21,15,08,18.30
2008,06,21,15,09,18.30
2008,06,21,15,10,18.40
2008,06,21,15,11,18.40
2008,06,21,15,12,18.40
2008,06,21,15,13,18.40
2008,06,21,15,14,18.40
2008,06,21,15,15,18.40
2008,06,21,15,16,18.50
2008,06,21,15,17,18.60
2008,06,21,15,18,18.70
2008,06,21,15,19,18.80
2008,06,21,15,20,18.90
2008,06,21,15,21,19.00
2008,06,21,15,22,19.10
2008,06,21,15,23,19.10
2008,06,21,15,24,19.20
2008,06,21,15,25,19.20
2008,06,21,15,26,19.30
2008,06,21,15,27,19.40
2008,06,21,15,28,19.50
2008,06,21,15,29,19.60
2008,06,21,15,30,19.80
2008,06,21,15,31,19.90
2008,06,21,15,32,20.00
2008,06,21,15,33,20.10
2008,06,21,15,34,20.20
2008,06,21,15,35,20.20
2008,06,21,15,36,20.30
2008,06,21,15,37,20.30
2008,06,21,15,38,20.30
2008,06,21,15,39,20.30
2008,06,21,15,40,20.30
2008,06,21,15,41,20.30
2008,06,21,15,42,20.30
2008,06,21,15,43,20.40
2008,06,21,15,44,20.40
2008,06,21,15,45,20.40
2008,06,21,15,46,20.40
2008,06,21,15,47,20.40
2008,06,21,15,48,20.30
2008,06,21,15,49,20.30
2008,06,21,15,50,20.30
2008,06,21,15,51,20.30
2008,06,21,15,52,20.30
2008,06,21,15,53,20.20
2008,06,21,15,54,20.20
2008,06,21,15,55,20.20
2008,06,21,15,56,20.30
2008,06,21,15,57,20.30
2008,06,21,15,58,20.40
2008,06,21,15,59,20.60
2008,06,21,16,00,20.60
2008,06,21,16,01,20.70
2008,06,21,16,02,20.80
2008,06,21,16,03,20.80
2008,06,21,16,04,20.90
2008,06,21,16,05,20.90
2008,06,21,16,06,20.90
2008,06,21,16,07,20.80
2008,06,21,16,08,20.80
2008,06,21,16,09,20.80
2008,06,21,16,10,20.80
2008,06,21,16,11,20.90
2008,06,21,16,12,21.00
2008,06,21,16,13,21.00
2008,06,21,16,14,21.10
2008,06,21,16,15,21.10
2008,06,21,16,16,21.20
2008,06,21,16,17,21.20
2008,06,21,16,18,21.30
2008,06,21,16,19,21.20
2008,06,21,16,20,21.20
2008,06,21,16,21,21.10
2008,06,21,16,22,21.00
2008,06,21,16,23,20.80
2008,06,21,16,24,20.60
2008,06,21,16,25,20.40
2008,06,21,16,26,20.30
2008,06,21,16,27,20.20
2008,06,21,16,28,20.20
2008,06,21,16,29,20.10
2008,06,21,16,30,19.90
2008,06,21,16,31,19.60
2008,06,21,16,32,19.40
2008,06,21,16,33,19.30
2008,06,21,16,34,19.20
2008,06,21,16,35,19.20
2008,06,21,16,36,19.00
2008,06,21,16,37,18.90
2008,06,21,16,38,18.80
2008,06,21,16,39,18.70
2008,06,21,16,40,18.50
2008,06,21,16,41,18.40
2008,06,21,16,42,18.40
2008,06,21,16,43,18.40
2008,06,21,16,44,18.40
2008,06,21,16,45,18.50
2008,06,21,16,46,18.60
2008,06,21,16,47,18.70
2008,06,21,16,48,18.60
2008,06,21,16,49,18.60
2008,06,21,16,50,18.50
2008,06,21,16,51,18.50
2008,06,21,16,52,18.50
2008,06,21,16,53,18.50
2008,06,21,16,54,18.60
2008,06,21,16,55,18.60
2008,06,21,16,56,18.60
2008,06,21,16,57,18.60
2008,06,21,16,58,18.50
2008,06,21,16,59,18.40
2008,06,21,17,00,18.30
2008,06,21,17,01,18.30
2008,06,21,17,02,18.30
2008,06,21,17,03,18.30
2008,06,21,17,04,18.30
2008,06,21,17,05,18.20
2008,06,21,17,06,18.10
2008,06,21,17,07,18.00
2008,06,21,17,08,17.90
2008,06,21,17,09,17.80
2008,06,21,17,10,17.70
2008,06,21,17,11,17.60
2008,06,21,17,12,17.50
2008,06,21,17,13,17.40
2008,06,21,17,14,17.40
2008,06,21,17,15,17.40
2008,06,21,17,16,17.40
2008,06,21,17,17,17.40
2008,06,21,17,18,17.50
2008,06,21,17,19,17.40
2008,06,21,17,20,17.40
2008,06,21,17,21,17.40
2008,06,21,17,22,17.30
2008,06,21,17,23,17.20
2008,06,21,17,24,17.30
2008,06,21,17,25,17.30
2008,06,21,17,26,17.30
2008,06,21,17,27,17.30
2008,06,21,17,28,17.30
2008,06,21,17,29,17.30
2008,06,21,17,30,17.40
2008,06,21,17,31,17.40
2008,06,21,17,32,17.40
2008,06,21,17,33,17.40
2008,06,21,17,34,17.30
2008,06,21,17,35,17.40
2008,06,21,17,36,17.30
2008,06,21,17,37,17.30
2008,06,21,17,38,17.10
2008,06,21,17,39,17.00
2008,06,21,17,40,16.80
2008,06,21,17,41,16.60
2008,06,21,17,42,16.40
2008,06,21,17,43,16.20
2008,06,21,17,44,16.00
2008,06,21,17,45,15.80
2008,06,21,17,46,15.70
2008,06,21,17,47,15.70
2008,06,21,17,48,15.60
2008,06,21,17,49,15.60
2008,06,21,17,50,15.60
2008,06,21,17,51,15.60
2008,06,21,17,52,15.60
2008,06,21,17,53,15.60
2008,06,21,17,54,15.60
2008,06,21,17,55,15.60
2008,06,21,17,56,15.60
2008,06,21,17,57,15.50
2008,06,21,17,58,15.40
2008,06,21,17,59,15.40
2008,06,21,18,00,15.40
2008,06,21,18,01,15.30
2008,06,21,18,02,15.30
2008,06,21,18,03,15.30
2008,06,21,18,04,15.30
2008,06,21,18,05,15.30
2008,06,21,18,06,15.30
2008,06,21,18,07,15.20
2008,06,21,18,08,15.00
2008,06,21,18,09,15.00